sat.trackr.live / text

‹ back to catalog

GEOEYE 1

NORAD 33331 · 2008-042A

PAYLOAD ACTIVE UNKNOWN

§ Identity

Operator
Country
US
Launch date
2008-09-06
Launch site
AFWTR
Launch vehicle
Mass (kg)
RCS (m²)
4.94

Purposes: earth_obs

External: N2YO · Heavens-Above · Gunter

§ Orbital elements

Epoch: 2026-09-10T03:16:31.897056Z

Period
98.31 min
Inclination
98.1271°
Eccentricity
0.0005406
Mean motion
14.64687075 rev/d
Perigee alt
674.3 km
Apogee alt
681.9 km
Semi-major
7,056.2 km
B*
5.8136e-5
RAAN
326.0461°
Arg perigee
138.6645°
Mean anomaly
221.4968°
Rev number
96,258

§ Raw data

GEOEYE 11 33331U 08042A   26253.13648029  .00000262  00000+0  58136-4 0  99942 33331  98.1271 326.0461 0005406 138.6645 221.4968 14.64687075962583

JSON: /api/v1/satellites/33331 · /tle

For live sub-satellite position, see the globe view (requires WebGL).

§ Visibility from observer

Set your observer location to see the next 7 days of passes ≥ 10°. The values pass through the URL so the page stays shareable.

No JS? Fill the form by hand. The geolocation button needs JavaScript.